Location: Newark
(44.1667°N, 8.2500°E)
Time: 02:36:14
(UTC+00:00)

Envisat - Pass Details

Date: 16 November 2019
Orbit: 764 x 766 km, 98.1° (Epoch: 10 December)

Event Time Altitude Azimuth Distance (km) Brightness Sun altitude
Rises 17:26:09 0° 167° (SSE) 3,219 6.2 -15.5°
Reaches altitude 10° 17:28:27 10° 168° (SSE) 2,297 5.5 -15.9°
Maximum altitude 17:33:31 83° 257° (WSW) 778 3.0 -16.8°
Drops below altitude 10° 17:38:38 10° 345° (NNW) 2,313 5.5 -17.7°
Sets 17:40:57 0° 347° (NNW) 3,243 6.3 -18.1°
